Regional Weather Roundup
Issued by NWS

Home | Current Version | Previous Version | Text Only | Print | Product List | Glossary Off
Versions: 1 2 3 4 5 6 7 8 9 10 11 12 13 14 15 16 17 18 19 20 21 22 23 24 25 26 27 28 29 30 31 32 33 34 35 36 37 38 39 40 41 42 43 44 45 46 47 48 49 50

000
ASUS43 KIND 260009
RWRIN

WEATHER ROUNDUP FOR INDIANA
NATIONAL WEATHER SERVICE INDIANAPOLIS IN
800 PM EDT MON SEP 25 2017

NOTE: "FAIR" INDICATES FEW OR NO CLOUDS BELOW 12,000 FEET WITH NO
SIGNIFICANT WEATHER AND/OR OBSTRUCTIONS TO VISIBILITY.

* - STATION DOES NOT REPORT WEATHER SUCH AS PRECIPITATION OR FOG.

+ - STATION NOT QUALITY CONTROLLED BY THE NATIONAL WEATHER SERVICE.
    USE DATA WITH CAUTION...ESPECIALLY DEWPOINT AND RELATIVE
    HUMIDITY OBSERVATIONS.

INZ001>003-010>013-019-020-260100-
NORTHWEST INDIANA

CITY           SKY/WX    TMP DP  RH WIND       PRES   REMARKS
GARY /AIRPORT/ PTCLDY    75  61  60 SE3       29.94S
KNOX *+        CLOUDY    79  55  44 SE3       29.95S
LA PORTE +     PTCLDY    74  59  60 CALM      29.96S
6HR MIN TEMP:  74; 6HR MAX TEMP:  90;

MICHIGAN CITY+ CLEAR     72  61  68 CALM      29.96S
MONTICELLO +   CLEAR     75  59  58 CALM      29.94S
6HR MIN TEMP:  75; 6HR MAX TEMP:  89;

RENSSELAER +   CLEAR     79  43  27 E5        29.94S
VALPARAISO     CLEAR     80  55  42 SE3       29.96R
6HR MIN TEMP:  80; 6HR MAX TEMP:  91;


$$

LMZ046-743>745-260100-
SOUTHERN LAKE MICHIGAN

STATION/POSITION TIME  TEMP    WIND        PRES    WAVE
                       AIR SEA DIR/SP/G            HT
                 (UTC) (F)     (DEG/KT/KT) (MB)    (FT)
BURNS HARBOR     2340   85      90/  6/ 11 1014.2R
MICHIGAN CITY    2340   84      90/  4/  5   N/A
5NW MICH CITY    2350   76 74   90/  4/  6   N/A     0

$$

INZ004-005-014>016-021>024-260100-
NORTH CENTRAL INDIANA

CITY           SKY/WX    TMP DP  RH WIND       PRES   REMARKS
ELKHART        CLEAR     77  55  47 CALM      29.97R
GOSHEN         CLEAR     75  58  55 CALM      29.96F
6HR MIN TEMP:  75; 6HR MAX TEMP:  89;

LOGANSPORT +   CLEAR     73  55  53 SE6       29.95F HAZE
PERU/GRISSOM   CLEAR     80  59  48 SE3       29.95S
6HR MIN TEMP:  80; 6HR MAX TEMP:  90;

SOUTH BEND     CLOUDY    81  55  40 SE5       29.96S
6HR MIN TEMP:  81; 6HR MAX TEMP:  89;

WARSAW +       CLEAR     73  63  68 CALM      29.96S

$$

INZ006>009-017-018-025>027-260100-
NORTHEAST INDIANA

CITY           SKY/WX    TMP DP  RH WIND       PRES   REMARKS
AUBURN +       CLEAR     73  63  68 CALM      29.97F
FORT WAYNE     PTCLDY    76  64  66 CALM      29.97S
6HR MIN TEMP:  76; 6HR MAX TEMP:  89;

HUNTINGTON +   MOCLDY    76  61  60 CALM      29.96S
6HR MIN TEMP:  75; 6HR MAX TEMP:  89;

KENDALLVILLE + CLEAR     73  65  75 CALM      29.98S

$$

INZ028-029-035-036-043>045-051>053-260100-
WEST CENTRAL INDIANA

CITY           SKY/WX    TMP DP  RH WIND       PRES   REMARKS
GREENCASTLE +  CLEAR     77  61  57 CALM      29.96S
LAFAYETTE      CLEAR     77  63  61 CALM      29.92F
6HR MIN TEMP:  77; 6HR MAX TEMP:  89;

TERRE HAUTE    CLEAR     79  61  53 E7        29.93S
6HR MIN TEMP:  79; 6HR MAX TEMP:  92;


$$

INZ030>032-037>040-046>048-054>057-064-065-260100-
CENTRAL INDIANA

CITY           SKY/WX    TMP DP  RH WIND       PRES   REMARKS
CP ATTERBURY + CLEAR     73  66  78 CALM      29.96S
COLUMBUS       PTCLDY    81  54  39 S6        29.96S
FRANKFORT +    CLOUDY    75  62  63 SE6       29.97S
6HR MIN TEMP:  75; 6HR MAX TEMP:  92;

INDIANAPOLIS   PTCLDY    83  59  44 SE5       29.95F
6HR MIN TEMP:  83; 6HR MAX TEMP:  91;

-EAGLE CREEK   CLEAR     83  57  41 CALM      29.95S
6HR MIN TEMP:  82; 6HR MAX TEMP:  91;

KOKOMO +       CLEAR     76  61  59 SE5       29.97S
6HR MIN TEMP:  76; 6HR MAX TEMP:  89;

MT COMFORT *+  CLEAR     77  61  57 CALM      29.97F
SHELBYVILLE    CLEAR     75  63  66 CALM      29.95S
6HR MIN TEMP:  75; 6HR MAX TEMP:  91;

ZIONSVILLE +   CLEAR     74  63  69 CALM      29.97S
6HR MIN TEMP:  74; 6HR MAX TEMP:  87;


$$

INZ033-034-041-042-049-050-058-059-260100-
EAST CENTRAL INDIANA

CITY           SKY/WX    TMP DP  RH WIND       PRES   REMARKS
MUNCIE         CLEAR     82  60  47 S5        29.97S
6HR MIN TEMP:  82; 6HR MAX TEMP:  91;

RICHMOND +     CLOUDY    73  63  68 SE5       30.01R

$$

INZ060-061-067>069-081>083-085>088-260100-
SOUTHWEST INDIANA

CITY           SKY/WX    TMP DP  RH WIND       PRES   REMARKS
EVANSVILLE     CLEAR     83  64  52 SE3       29.94S
6HR MIN TEMP:  83; 6HR MAX TEMP:  91;

HUNTINGBURG +  CLEAR     80  68  66 SE3       29.95S
6HR MIN TEMP:  80; 6HR MAX TEMP:  89;

WASHINGTON +   CLEAR     78  62  57 S5        29.94R
6HR MIN TEMP:  78; 6HR MAX TEMP:  92;


$$

INZ062-063-066-070>080-084-089>092-260100-
SOUTH CENTRAL AND SOUTHEAST INDIANA

CITY           SKY/WX    TMP DP  RH WIND       PRES   REMARKS
BLOOMINGTON    CLEAR     78  62  57 CALM      29.96S
6HR MIN TEMP:  78; 6HR MAX TEMP:  90;

MADISON *+     PTCLDY    75  64  69 SE3       30.00S
NORTH VERNON + PTCLDY    72  66  83 CALM      29.98R
SEYMOUR +      CLEAR     79  64  61 CALM      29.96S

$$





USA.gov is the U.S. government's official web portal to all federal, state and local government web resources and services.